Time,TemperatureF,DewpointF,PressureIn,WindDirection,WindDirectionDegrees,WindSpeedMPH,WindSpeedGustMPH,Humidity,HourlyPrecipIn,Conditions,Clouds,dailyrainin,SoftwareType,DateUTC
2013-05-09 00:01:00,69.8,61.0,28.46,SSE,157,7.2,11.0,74,0.00,,,0.00,Rainwise IP-100,2013-05-09 05:01:00,
2013-05-09 00:06:00,69.9,61.0,28.46,SSE,157,5.1,9.8,73,0.00,,,0.00,Rainwise IP-100,2013-05-09 05:06:00,
2013-05-09 00:11:00,70.1,61.0,28.46,SE,135,4.4,11.4,73,0.00,,,0.00,Rainwise IP-100,2013-05-09 05:11:00,
2013-05-09 00:16:00,70.2,60.5,28.46,SSE,157,4.2,10.0,72,0.00,,,0.00,Rainwise IP-100,2013-05-09 05:16:00,
2013-05-09 00:21:00,70.3,61.0,28.46,SSE,157,6.8,11.4,72,0.00,,,0.00,Rainwise IP-100,2013-05-09 05:21:00,
2013-05-09 00:26:00,70.3,60.5,28.46,SE,135,4.4,10.3,71,0.00,,,0.00,Rainwise IP-100,2013-05-09 05:26:00,
2013-05-09 00:31:00,70.2,60.5,28.46,SSE,157,5.4,10.0,71,0.00,,,0.00,Rainwise IP-100,2013-05-09 05:31:00,
2013-05-09 00:36:00,70.1,60.5,28.45,ESE,112,8.4,12.4,71,0.00,,,0.00,Rainwise IP-100,2013-05-09 05:36:00,
2013-05-09 00:41:00,70.1,60.5,28.47,SSE,157,8.2,9.6,71,0.00,,,0.00,Rainwise IP-100,2013-05-09 05:41:00,
2013-05-09 00:46:00,70.0,60.5,28.47,SSE,157,5.4,13.1,71,0.00,,,0.00,Rainwise IP-100,2013-05-09 05:46:00,
2013-05-09 00:51:00,69.8,60.0,28.46,SSE,157,4.9,12.1,71,0.00,,,0.00,Rainwise IP-100,2013-05-09 05:51:00,
2013-05-09 00:56:00,69.6,60.0,28.47,SSW,202,6.1,11.9,71,0.00,,,0.00,Rainwise IP-100,2013-05-09 05:56:00,
2013-05-09 01:01:00,69.5,60.0,28.47,SSE,157,5.6,11.4,71,0.00,,,0.00,Rainwise IP-100,2013-05-09 06:01:00,
2013-05-09 01:06:00,69.3,59.5,28.47,SSE,157,3.0,11.4,71,0.00,,,0.00,Rainwise IP-100,2013-05-09 06:06:00,
2013-05-09 01:11:00,69.1,59.5,28.46,SSW,202,6.3,10.0,72,0.00,,,0.00,Rainwise IP-100,2013-05-09 06:11:00,
2013-05-09 01:16:00,68.9,59.5,28.46,South,180,5.6,10.5,72,0.00,,,0.00,Rainwise IP-100,2013-05-09 06:16:00,
2013-05-09 01:21:00,68.9,60.0,28.46,SSE,157,4.7,10.0,73,0.00,,,0.00,Rainwise IP-100,2013-05-09 06:21:00,
2013-05-09 01:26:00,68.8,60.0,28.46,SSE,157,5.4,11.4,73,0.00,,,0.00,Rainwise IP-100,2013-05-09 06:26:00,
2013-05-09 01:31:00,68.6,59.5,28.45,SE,135,3.5,12.4,73,0.00,,,0.00,Rainwise IP-100,2013-05-09 06:31:00,
2013-05-09 01:36:00,68.4,60.0,28.46,SSE,157,7.2,11.0,74,0.00,,,0.00,Rainwise IP-100,2013-05-09 06:36:00,
2013-05-09 01:41:00,68.3,60.0,28.46,SSE,157,6.3,10.3,74,0.00,,,0.00,Rainwise IP-100,2013-05-09 06:41:00,
2013-05-09 01:46:00,68.2,60.0,28.46,South,180,6.3,9.1,75,0.00,,,0.00,Rainwise IP-100,2013-05-09 06:46:00,
2013-05-09 01:51:00,68.1,60.0,28.47,South,180,6.8,11.0,75,0.00,,,0.00,Rainwise IP-100,2013-05-09 06:51:00,
2013-05-09 01:56:00,68.1,60.0,28.47,ESE,112,2.8,11.4,75,0.00,,,0.00,Rainwise IP-100,2013-05-09 06:56:00,
2013-05-09 02:01:00,68.0,60.0,28.47,South,180,4.7,9.8,76,0.00,,,0.00,Rainwise IP-100,2013-05-09 07:01:00,
2013-05-09 02:06:00,68.0,60.0,28.47,SSE,157,3.0,11.0,76,0.00,,,0.00,Rainwise IP-100,2013-05-09 07:06:00,
2013-05-09 02:11:00,67.9,60.0,28.47,SW,225,3.7,10.3,76,0.00,,,0.00,Rainwise IP-100,2013-05-09 07:11:00,
2013-05-09 02:16:00,67.7,60.0,28.47,SSE,157,4.9,11.7,77,0.00,,,0.00,Rainwise IP-100,2013-05-09 07:16:00,
2013-05-09 02:21:00,67.7,60.5,28.47,ESE,112,4.0,8.6,78,0.00,,,0.00,Rainwise IP-100,2013-05-09 07:21:00,
2013-05-09 02:26:00,67.6,60.5,28.47,SSE,157,5.1,11.7,78,0.00,,,0.00,Rainwise IP-100,2013-05-09 07:26:00,
2013-05-09 02:31:00,67.5,61.0,28.46,South,180,8.2,11.0,79,0.00,,,0.00,Rainwise IP-100,2013-05-09 07:31:00,
2013-05-09 02:36:00,67.5,61.0,28.46,SSE,157,4.9,10.5,79,0.00,,,0.00,Rainwise IP-100,2013-05-09 07:36:00,
2013-05-09 02:41:00,67.6,61.0,28.46,SSE,157,6.1,11.9,79,0.00,,,0.00,Rainwise IP-100,2013-05-09 07:41:00,
2013-05-09 02:46:00,67.7,61.0,28.46,SSE,157,4.0,9.8,80,0.00,,,0.00,Rainwise IP-100,2013-05-09 07:46:00,
2013-05-09 02:51:00,67.8,61.5,28.46,SE,135,5.1,10.0,80,0.00,,,0.00,Rainwise IP-100,2013-05-09 07:51:00,
2013-05-09 02:56:00,67.8,61.5,28.46,ESE,112,7.5,9.8,80,0.00,,,0.00,Rainwise IP-100,2013-05-09 07:56:00,
2013-05-09 03:01:00,67.8,62.0,28.46,SSE,157,5.4,10.5,81,0.00,,,0.00,Rainwise IP-100,2013-05-09 08:01:00,
2013-05-09 03:06:00,67.9,62.0,28.46,ESE,112,2.6,10.0,81,0.00,,,0.00,Rainwise IP-100,2013-05-09 08:06:00,
2013-05-09 03:11:00,67.9,62.0,28.46,SSE,157,8.6,11.0,81,0.00,,,0.00,Rainwise IP-100,2013-05-09 08:11:00,
2013-05-09 03:16:00,67.9,62.0,28.46,SE,135,6.8,9.6,81,0.00,,,0.00,Rainwise IP-100,2013-05-09 08:16:00,
2013-05-09 03:21:00,68.0,62.0,28.46,ESE,112,5.4,8.9,81,0.00,,,0.00,Rainwise IP-100,2013-05-09 08:21:00,
2013-05-09 03:26:00,68.0,62.0,28.46,SSE,157,3.5,10.7,81,0.00,,,0.00,Rainwise IP-100,2013-05-09 08:26:00,
2013-05-09 03:31:00,67.9,62.5,28.46,SSW,202,1.6,6.1,82,0.00,,,0.00,Rainwise IP-100,2013-05-09 08:31:00,
2013-05-09 03:36:00,67.9,62.5,28.46,South,180,4.0,7.0,82,0.00,,,0.00,Rainwise IP-100,2013-05-09 08:36:00,
2013-05-09 03:41:00,67.9,62.5,28.46,South,180,3.7,7.9,82,0.00,,,0.00,Rainwise IP-100,2013-05-09 08:41:00,
2013-05-09 03:46:00,67.9,62.5,28.46,SSE,157,1.6,7.0,82,0.00,,,0.00,Rainwise IP-100,2013-05-09 08:46:00,
2013-05-09 03:51:00,68.0,62.5,28.46,SSE,157,5.8,6.8,82,0.00,,,0.00,Rainwise IP-100,2013-05-09 08:51:00,
2013-05-09 03:56:00,68.0,62.5,28.46,South,180,3.5,7.0,82,0.00,,,0.00,Rainwise IP-100,2013-05-09 08:56:00,
2013-05-09 04:01:00,67.9,62.5,28.46,SE,135,2.6,7.7,83,0.00,,,0.00,Rainwise IP-100,2013-05-09 09:01:00,
2013-05-09 04:06:00,67.9,62.5,28.46,SSE,157,2.6,7.5,83,0.00,,,0.00,Rainwise IP-100,2013-05-09 09:06:00,
2013-05-09 04:11:00,67.9,62.5,28.46,SE,135,2.8,8.6,83,0.00,,,0.00,Rainwise IP-100,2013-05-09 09:11:00,
2013-05-09 04:16:00,68.0,62.5,28.46,SE,135,4.0,7.2,83,0.00,,,0.00,Rainwise IP-100,2013-05-09 09:16:00,
2013-05-09 04:21:00,68.0,62.5,28.46,SSE,157,3.3,7.7,83,0.00,,,0.00,Rainwise IP-100,2013-05-09 09:21:00,
2013-05-09 04:26:00,68.0,62.5,28.45,SSE,157,4.7,6.3,83,0.00,,,0.00,Rainwise IP-100,2013-05-09 09:26:00,
2013-05-09 04:31:00,68.0,63.0,28.45,SSW,202,5.4,7.5,84,0.00,,,0.00,Rainwise IP-100,2013-05-09 09:31:00,
2013-05-09 04:32:00,68.0,63.0,28.46,SSE,157,3.7,7.5,84,0.00,,,0.00,Rainwise IP-100,2013-05-09 09:32:00,
2013-05-09 04:37:00,68.1,63.0,28.45,SSE,157,3.3,7.0,84,0.00,,,0.00,Rainwise IP-100,2013-05-09 09:37:00,
2013-05-09 04:42:00,68.1,63.0,28.46,SSE,157,6.3,7.0,84,0.00,,,0.00,Rainwise IP-100,2013-05-09 09:42:00,
2013-05-09 04:47:00,68.0,63.0,28.45,SSE,157,5.8,8.9,84,0.00,,,0.00,Rainwise IP-100,2013-05-09 09:47:00,
2013-05-09 04:52:00,68.1,63.0,28.46,SE,135,3.5,8.4,84,0.00,,,0.00,Rainwise IP-100,2013-05-09 09:52:00,
2013-05-09 04:57:00,68.1,63.0,28.46,SSE,157,3.3,7.0,84,0.00,,,0.00,Rainwise IP-100,2013-05-09 09:57:00,
2013-05-09 05:02:00,68.2,63.5,28.46,SSE,157,6.1,7.7,85,0.00,,,0.00,Rainwise IP-100,2013-05-09 10:02:00,
2013-05-09 05:07:00,68.2,63.5,28.46,SSE,157,3.3,6.8,85,0.00,,,0.00,Rainwise IP-100,2013-05-09 10:07:00,
2013-05-09 05:12:00,68.2,63.5,28.46,South,180,4.4,7.9,85,0.00,,,0.00,Rainwise IP-100,2013-05-09 10:12:00,
2013-05-09 05:17:00,68.2,63.5,28.46,South,180,3.0,7.5,85,0.00,,,0.00,Rainwise IP-100,2013-05-09 10:17:00,
2013-05-09 05:22:00,68.3,64.0,28.46,SSE,157,2.6,8.2,85,0.00,,,0.00,Rainwise IP-100,2013-05-09 10:22:00,
2013-05-09 05:27:00,68.3,64.0,28.46,South,180,1.6,7.7,85,0.00,,,0.00,Rainwise IP-100,2013-05-09 10:27:00,
2013-05-09 05:32:00,68.3,64.0,28.46,SSE,157,6.5,7.9,85,0.00,,,0.00,Rainwise IP-100,2013-05-09 10:32:00,
2013-05-09 05:37:00,68.3,64.0,28.46,SSE,157,1.4,8.2,85,0.00,,,0.00,Rainwise IP-100,2013-05-09 10:37:00,
2013-05-09 05:42:00,68.3,64.0,28.46,SSE,157,4.7,7.2,85,0.00,,,0.00,Rainwise IP-100,2013-05-09 10:42:00,
2013-05-09 05:47:00,68.3,64.0,28.46,SSE,157,4.4,6.5,86,0.00,,,0.00,Rainwise IP-100,2013-05-09 10:47:00,
2013-05-09 05:52:00,68.3,64.0,28.46,South,180,3.5,5.8,86,0.00,,,0.00,Rainwise IP-100,2013-05-09 10:52:00,
2013-05-09 05:57:00,68.3,64.0,28.47,SSE,157,4.4,7.9,86,0.00,,,0.00,Rainwise IP-100,2013-05-09 10:57:00,
2013-05-09 06:02:00,68.3,64.0,28.47,SSE,157,4.7,7.0,86,0.00,,,0.00,Rainwise IP-100,2013-05-09 11:02:00,
2013-05-09 06:07:00,68.3,64.0,28.46,SE,135,4.9,7.9,86,0.00,,,0.00,Rainwise IP-100,2013-05-09 11:07:00,
2013-05-09 06:12:00,68.3,64.0,28.46,ESE,112,4.0,7.2,86,0.00,,,0.00,Rainwise IP-100,2013-05-09 11:12:00,
2013-05-09 06:17:00,68.3,64.0,28.46,SSE,157,2.1,7.0,86,0.00,,,0.00,Rainwise IP-100,2013-05-09 11:17:00,
2013-05-09 06:22:00,68.3,64.0,28.45,SE,135,3.0,4.4,86,0.00,,,0.00,Rainwise IP-100,2013-05-09 11:22:00,
2013-05-09 06:27:00,68.3,64.5,28.45,East,90,6.5,7.5,87,0.00,,,0.00,Rainwise IP-100,2013-05-09 11:27:00,
2013-05-09 06:32:00,68.3,64.5,28.46,SSE,157,4.4,6.5,87,0.00,,,0.00,Rainwise IP-100,2013-05-09 11:32:00,
2013-05-09 06:37:00,68.2,64.0,28.45,SE,135,2.6,7.9,87,0.00,,,0.00,Rainwise IP-100,2013-05-09 11:37:00,
2013-05-09 06:38:00,68.2,64.0,28.46,SSE,157,5.6,7.9,87,0.00,,,0.00,Rainwise IP-100,2013-05-09 11:38:00,
2013-05-09 06:43:00,68.2,64.0,28.46,SSW,202,3.3,7.5,87,0.00,,,0.00,Rainwise IP-100,2013-05-09 11:43:00,
2013-05-09 06:48:00,68.2,64.0,28.46,South,180,1.9,8.2,87,0.00,,,0.00,Rainwise IP-100,2013-05-09 11:48:00,
2013-05-09 06:53:00,68.2,64.0,28.46,SSE,157,3.3,7.5,87,0.00,,,0.00,Rainwise IP-100,2013-05-09 11:53:00,
2013-05-09 06:58:00,68.3,64.5,28.46,SE,135,3.3,6.5,87,0.00,,,0.00,Rainwise IP-100,2013-05-09 11:58:00,
2013-05-09 07:03:00,68.3,64.5,28.46,South,180,2.1,5.8,87,0.00,,,0.00,Rainwise IP-100,2013-05-09 12:03:00,
2013-05-09 07:08:00,68.2,64.0,28.47,SSE,157,4.9,6.5,87,0.00,,,0.00,Rainwise IP-100,2013-05-09 12:08:00,
2013-05-09 07:13:00,68.2,64.0,28.47,South,180,4.4,8.2,87,0.00,,,0.00,Rainwise IP-100,2013-05-09 12:13:00,
2013-05-09 07:18:00,68.2,64.0,28.47,South,180,2.3,8.6,87,0.00,,,0.00,Rainwise IP-100,2013-05-09 12:18:00,
2013-05-09 07:23:00,68.2,64.5,28.47,SSE,157,2.6,7.2,88,0.00,,,0.00,Rainwise IP-100,2013-05-09 12:23:00,
2013-05-09 07:28:00,68.2,64.5,28.47,ESE,112,3.3,7.7,88,0.00,,,0.00,Rainwise IP-100,2013-05-09 12:28:00,
2013-05-09 07:33:00,68.2,64.5,28.47,SE,135,4.0,5.1,88,0.00,,,0.00,Rainwise IP-100,2013-05-09 12:33:00,
2013-05-09 07:38:00,68.3,65.0,28.46,SE,135,3.0,6.3,88,0.00,,,0.00,Rainwise IP-100,2013-05-09 12:38:00,
2013-05-09 07:43:00,68.2,64.5,28.48,South,180,3.5,6.8,88,0.00,,,0.00,Rainwise IP-100,2013-05-09 12:43:00,
2013-05-09 07:48:00,68.3,65.0,28.49,SSE,157,1.4,7.0,88,0.00,,,0.00,Rainwise IP-100,2013-05-09 12:48:00,
2013-05-09 07:53:00,68.3,65.0,28.50,SW,225,5.1,5.4,88,0.00,,,0.00,Rainwise IP-100,2013-05-09 12:53:00,
2013-05-09 07:58:00,68.4,65.0,28.52,WSW,247,4.2,6.8,88,0.00,,,0.00,Rainwise IP-100,2013-05-09 12:58:00,
2013-05-09 08:03:00,68.4,64.5,28.52,WSW,247,3.3,10.3,87,0.00,,,0.00,Rainwise IP-100,2013-05-09 13:03:00,
2013-05-09 08:08:00,68.4,64.5,28.51,SW,225,3.3,6.5,87,0.00,,,0.00,Rainwise IP-100,2013-05-09 13:08:00,
2013-05-09 08:13:00,68.3,64.5,28.51,SW,225,1.4,4.0,87,0.00,,,0.00,Rainwise IP-100,2013-05-09 13:13:00,
2013-05-09 08:18:00,68.1,64.5,28.51,SW,225,0.0,3.0,88,0.00,,,0.00,Rainwise IP-100,2013-05-09 13:18:00,
2013-05-09 08:23:00,67.6,64.5,28.50,South,180,0.0,1.4,89,0.06,,,0.01,Rainwise IP-100,2013-05-09 13:23:00,
2013-05-09 08:28:00,67.2,64.5,28.50,South,180,0.0,2.3,91,0.12,,,0.02,Rainwise IP-100,2013-05-09 13:28:00,
2013-05-09 08:33:00,67.1,64.5,28.50,South,180,0.0,1.2,91,0.06,,,0.02,Rainwise IP-100,2013-05-09 13:33:00,
2013-05-09 08:38:00,67.0,65.0,28.50,South,180,0.0,0.0,92,0.00,,,0.02,Rainwise IP-100,2013-05-09 13:38:00,
2013-05-09 08:43:00,67.0,65.0,28.50,South,180,0.0,0.0,92,0.00,,,0.02,Rainwise IP-100,2013-05-09 13:43:00,
2013-05-09 08:48:00,67.0,65.0,28.51,South,180,0.0,0.0,93,0.00,,,0.02,Rainwise IP-100,2013-05-09 13:48:00,
2013-05-09 08:53:00,67.0,65.5,28.52,South,180,0.0,0.0,94,0.00,,,0.02,Rainwise IP-100,2013-05-09 13:53:00,
2013-05-09 08:58:00,67.0,65.5,28.52,South,180,0.0,0.0,94,0.00,,,0.02,Rainwise IP-100,2013-05-09 13:58:00,
2013-05-09 09:03:00,67.0,66.0,28.54,South,180,0.0,0.0,95,0.00,,,0.02,Rainwise IP-100,2013-05-09 14:03:00,
2013-05-09 09:08:00,66.9,66.0,28.53,NNE,22,0.0,4.4,95,0.12,,,0.05,Rainwise IP-100,2013-05-09 14:08:00,
2013-05-09 09:13:00,66.9,66.0,28.52,NNE,22,0.0,1.9,95,0.18,,,0.06,Rainwise IP-100,2013-05-09 14:13:00,
2013-05-09 09:18:00,66.9,66.0,28.52,NNE,22,0.0,0.0,95,0.12,,,0.06,Rainwise IP-100,2013-05-09 14:18:00,
2013-05-09 09:23:00,66.9,66.0,28.53,NNE,22,0.0,0.0,95,0.06,,,0.07,Rainwise IP-100,2013-05-09 14:23:00,
2013-05-09 09:28:00,66.7,65.5,28.52,NNE,22,4.4,4.9,96,1.26,,,0.31,Rainwise IP-100,2013-05-09 14:28:00,
2013-05-09 09:33:00,66.5,65.5,28.53,NNE,22,2.1,4.9,96,1.80,,,0.36,Rainwise IP-100,2013-05-09 14:33:00,
2013-05-09 09:38:00,66.4,65.0,28.51,SE,135,1.2,6.8,96,0.66,,,0.39,Rainwise IP-100,2013-05-09 14:38:00,
2013-05-09 09:43:00,66.3,65.0,28.51,East,90,2.8,4.7,96,0.18,,,0.39,Rainwise IP-100,2013-05-09 14:43:00,
2013-05-09 09:48:00,66.3,65.5,28.50,ENE,67,5.1,6.5,97,0.12,,,0.40,Rainwise IP-100,2013-05-09 14:48:00,
2013-05-09 09:53:00,66.2,65.5,28.50,ENE,67,2.1,7.2,97,0.06,,,0.40,Rainwise IP-100,2013-05-09 14:53:00,
2013-05-09 09:58:00,66.3,65.5,28.49,NE,45,5.4,5.4,97,0.00,,,0.40,Rainwise IP-100,2013-05-09 14:58:00,
2013-05-09 10:03:00,66.2,65.5,28.50,NW,315,4.7,7.7,97,0.00,,,0.40,Rainwise IP-100,2013-05-09 15:03:00,
2013-05-09 10:08:00,66.2,65.5,28.50,ENE,67,2.8,6.8,97,0.00,,,0.40,Rainwise IP-100,2013-05-09 15:08:00,
2013-05-09 10:13:00,66.2,66.0,28.50,ENE,67,5.1,8.2,98,0.00,,,0.40,Rainwise IP-100,2013-05-09 15:13:00,
2013-05-09 10:18:00,66.2,66.0,28.50,SE,135,3.0,7.5,98,0.00,,,0.40,Rainwise IP-100,2013-05-09 15:18:00,
2013-05-09 10:23:00,66.2,66.0,28.50,South,180,4.9,7.0,98,0.00,,,0.40,Rainwise IP-100,2013-05-09 15:23:00,
2013-05-09 10:28:00,66.2,66.0,28.51,SSW,202,2.8,8.6,98,0.00,,,0.40,Rainwise IP-100,2013-05-09 15:28:00,
2013-05-09 10:33:00,66.2,66.0,28.53,North,360,2.3,6.1,98,0.00,,,0.40,Rainwise IP-100,2013-05-09 15:33:00,
2013-05-09 10:38:00,66.2,66.0,28.53,WSW,247,1.4,3.5,98,0.00,,,0.40,Rainwise IP-100,2013-05-09 15:38:00,
2013-05-09 10:43:00,66.2,66.0,28.53,WSW,247,0.0,3.3,98,0.12,,,0.43,Rainwise IP-100,2013-05-09 15:43:00,
2013-05-09 10:48:00,66.2,66.0,28.54,NW,315,1.9,0.0,98,0.42,,,0.49,Rainwise IP-100,2013-05-09 15:48:00,
2013-05-09 10:53:00,66.2,66.0,28.53,North,360,1.6,6.8,98,0.60,,,0.53,Rainwise IP-100,2013-05-09 15:53:00,
2013-05-09 10:58:00,66.1,65.5,28.53,NNE,22,5.4,8.2,98,0.30,,,0.54,Rainwise IP-100,2013-05-09 15:58:00,
2013-05-09 11:03:00,65.7,65.0,28.52,NNW,337,4.2,9.3,98,0.18,,,0.56,Rainwise IP-100,2013-05-09 16:03:00,
2013-05-09 11:08:00,65.0,64.0,28.51,NNE,22,4.7,9.1,97,0.24,,,0.58,Rainwise IP-100,2013-05-09 16:08:00,
2013-05-09 11:13:00,64.3,63.5,28.51,ESE,112,1.9,7.0,97,0.18,,,0.59,Rainwise IP-100,2013-05-09 16:13:00,
2013-05-09 11:18:00,63.9,63.0,28.50,North,360,2.1,3.5,97,0.06,,,0.59,Rainwise IP-100,2013-05-09 16:18:00,
2013-05-09 11:23:00,63.7,62.5,28.50,ENE,67,5.8,7.7,97,0.00,,,0.59,Rainwise IP-100,2013-05-09 16:23:00,
2013-05-09 11:28:00,63.5,62.5,28.51,NNE,22,4.2,7.7,96,0.00,,,0.59,Rainwise IP-100,2013-05-09 16:28:00,
2013-05-09 11:33:00,63.4,62.5,28.54,WNW,292,3.7,10.7,96,0.00,,,0.59,Rainwise IP-100,2013-05-09 16:33:00,
2013-05-09 11:38:00,63.2,62.0,28.58,WSW,247,1.4,10.5,96,0.00,,,0.59,Rainwise IP-100,2013-05-09 16:38:00,
2013-05-09 11:42:00,63.0,62.0,28.58,NW,315,11.0,13.1,96,0.24,,,0.65,Rainwise IP-100,2013-05-09 16:42:00,
2013-05-09 11:47:00,62.1,60.5,28.56,NNW,337,3.7,18.4,94,2.16,,,1.00,Rainwise IP-100,2013-05-09 16:47:00,
2013-05-09 12:00:00,59.7,57.5,28.58,NNW,337,0.0,4.0,94,0.90,,,1.21,Rainwise IP-100,2013-05-09 17:00:00,
2013-05-09 12:05:00,59.5,57.5,28.57,East,90,1.4,2.6,95,0.36,,,0.06,Rainwise IP-100,2013-05-09 17:05:00,
2013-05-09 12:10:00,59.4,58.0,28.55,ESE,112,1.4,6.1,96,0.84,,,0.14,Rainwise IP-100,2013-05-09 17:10:00,
2013-05-09 12:15:00,59.2,58.0,28.54,ENE,67,2.6,6.3,97,0.72,,,0.18,Rainwise IP-100,2013-05-09 17:15:00,
2013-05-09 12:20:00,59.1,58.0,28.55,NE,45,0.0,3.5,98,0.42,,,0.21,Rainwise IP-100,2013-05-09 17:20:00,
2013-05-09 12:25:00,59.1,58.0,28.56,ENE,67,1.6,3.7,98,0.24,,,0.22,Rainwise IP-100,2013-05-09 17:25:00,
2013-05-09 12:30:00,59.1,58.0,28.53,ENE,67,6.3,8.9,98,0.06,,,0.22,Rainwise IP-100,2013-05-09 17:30:00,
2013-05-09 12:35:00,59.1,58.0,28.51,ENE,67,4.4,10.3,98,0.12,,,0.24,Rainwise IP-100,2013-05-09 17:35:00,
2013-05-09 12:40:00,59.1,58.0,28.52,NW,315,2.6,9.3,98,0.24,,,0.26,Rainwise IP-100,2013-05-09 17:40:00,
2013-05-09 12:45:00,59.2,59.0,28.53,WNW,292,2.6,4.9,99,0.12,,,0.26,Rainwise IP-100,2013-05-09 17:45:00,
2013-05-09 12:50:00,59.6,59.0,28.54,NNW,337,4.4,4.4,99,0.00,,,0.26,Rainwise IP-100,2013-05-09 17:50:00,
2013-05-09 12:55:00,60.0,59.5,28.52,North,360,4.4,8.2,99,0.00,,,0.26,Rainwise IP-100,2013-05-09 17:55:00,
2013-05-09 13:00:00,60.5,60.0,28.52,North,360,1.6,6.5,99,0.00,,,0.26,Rainwise IP-100,2013-05-09 18:00:00,
2013-05-09 13:05:00,60.7,60.0,28.53,North,360,3.7,8.4,99,0.42,,,0.34,Rainwise IP-100,2013-05-09 18:05:00,
2013-05-09 13:10:00,60.8,60.5,28.52,North,360,4.7,7.2,99,0.84,,,0.40,Rainwise IP-100,2013-05-09 18:10:00,
2013-05-09 13:15:00,60.8,60.5,28.52,North,360,0.0,5.1,99,0.42,,,0.40,Rainwise IP-100,2013-05-09 18:15:00,
2013-05-09 13:20:00,61.0,60.5,28.53,SSE,157,1.9,4.9,99,0.00,,,0.40,Rainwise IP-100,2013-05-09 18:20:00,
2013-05-09 13:25:00,61.2,60.5,28.52,WSW,247,2.1,4.2,99,0.00,,,0.40,Rainwise IP-100,2013-05-09 18:25:00,
2013-05-09 13:30:00,61.4,61.0,28.52,WSW,247,0.0,4.7,99,0.00,,,0.40,Rainwise IP-100,2013-05-09 18:30:00,
2013-05-09 13:35:00,61.7,61.0,28.52,WSW,247,0.0,3.3,99,0.00,,,0.40,Rainwise IP-100,2013-05-09 18:35:00,
2013-05-09 13:40:00,62.1,61.5,28.51,WSW,247,5.1,5.1,99,0.00,,,0.40,Rainwise IP-100,2013-05-09 18:40:00,
2013-05-09 13:45:00,62.7,62.0,28.52,WNW,292,3.3,5.8,99,0.00,,,0.40,Rainwise IP-100,2013-05-09 18:45:00,
2013-05-09 13:50:00,63.3,63.0,28.52,SSE,157,3.5,3.7,99,0.00,,,0.40,Rainwise IP-100,2013-05-09 18:50:00,
2013-05-09 13:55:00,64.3,64.0,28.51,ENE,67,3.0,5.8,98,0.00,,,0.40,Rainwise IP-100,2013-05-09 18:55:00,
2013-05-09 14:00:00,65.6,64.5,28.50,ENE,67,4.0,7.7,97,0.00,,,0.40,Rainwise IP-100,2013-05-09 19:00:00,
2013-05-09 14:05:00,66.6,65.0,28.50,ENE,67,2.3,7.2,94,0.00,,,0.40,Rainwise IP-100,2013-05-09 19:05:00,
2013-05-09 14:10:00,67.1,64.5,28.51,East,90,3.0,6.8,91,0.00,,,0.40,Rainwise IP-100,2013-05-09 19:10:00,
2013-05-09 14:15:00,67.7,64.0,28.50,NE,45,2.8,5.6,88,0.00,,,0.40,Rainwise IP-100,2013-05-09 19:15:00,
2013-05-09 14:20:00,68.6,64.0,28.50,NE,45,4.2,8.6,86,0.00,,,0.40,Rainwise IP-100,2013-05-09 19:20:00,
2013-05-09 14:25:00,69.5,64.5,28.50,ENE,67,4.7,8.9,84,0.00,,,0.40,Rainwise IP-100,2013-05-09 19:25:00,
2013-05-09 14:30:00,69.9,64.5,28.50,NNE,22,2.3,7.9,82,0.00,,,0.40,Rainwise IP-100,2013-05-09 19:30:00,
2013-05-09 14:35:00,69.8,63.0,28.50,ENE,67,1.6,9.1,80,0.00,,,0.40,Rainwise IP-100,2013-05-09 19:35:00,
2013-05-09 14:40:00,70.1,63.0,28.49,ENE,67,7.5,10.3,79,0.00,,,0.40,Rainwise IP-100,2013-05-09 19:40:00,
2013-05-09 14:45:00,70.7,63.5,28.48,ENE,67,5.6,9.6,79,0.00,,,0.40,Rainwise IP-100,2013-05-09 19:45:00,
2013-05-09 14:50:00,70.9,63.5,28.48,ESE,112,6.5,10.3,77,0.06,,,0.41,Rainwise IP-100,2013-05-09 19:50:00,
2013-05-09 14:55:00,71.1,63.0,28.48,SE,135,3.3,8.9,76,0.06,,,0.41,Rainwise IP-100,2013-05-09 19:55:00,
2013-05-09 15:00:00,71.5,63.5,28.48,East,90,5.8,8.9,76,0.00,,,0.41,Rainwise IP-100,2013-05-09 20:00:00,
2013-05-09 15:05:00,71.6,63.5,28.48,SE,135,3.7,11.4,75,0.00,,,0.41,Rainwise IP-100,2013-05-09 20:05:00,
2013-05-09 15:10:00,71.8,63.5,28.47,SE,135,1.9,11.0,75,0.00,,,0.41,Rainwise IP-100,2013-05-09 20:10:00,
2013-05-09 15:15:00,71.9,63.5,28.47,East,90,4.2,11.9,75,0.00,,,0.41,Rainwise IP-100,2013-05-09 20:15:00,
2013-05-09 15:20:00,72.2,64.0,28.47,East,90,2.6,11.7,75,0.00,,,0.41,Rainwise IP-100,2013-05-09 20:20:00,
2013-05-09 15:25:00,72.3,64.0,28.46,East,90,4.7,10.7,75,0.00,,,0.41,Rainwise IP-100,2013-05-09 20:25:00,
2013-05-09 15:30:00,72.1,63.5,28.45,East,90,2.1,12.1,75,0.00,,,0.41,Rainwise IP-100,2013-05-09 20:30:00,
2013-05-09 15:35:00,72.3,64.0,28.45,ESE,112,3.0,12.4,75,0.00,,,0.41,Rainwise IP-100,2013-05-09 20:35:00,
2013-05-09 15:40:00,72.4,63.5,28.45,ESE,112,2.1,11.0,74,0.00,,,0.41,Rainwise IP-100,2013-05-09 20:40:00,
2013-05-09 15:45:00,72.1,63.0,28.45,ESE,112,11.9,12.1,74,0.00,,,0.41,Rainwise IP-100,2013-05-09 20:45:00,
2013-05-09 15:50:00,71.7,63.0,28.45,ESE,112,3.3,13.3,74,0.00,,,0.41,Rainwise IP-100,2013-05-09 20:50:00,
2013-05-09 15:55:00,71.7,63.0,28.45,ENE,67,3.7,11.7,74,0.00,,,0.41,Rainwise IP-100,2013-05-09 20:55:00,
2013-05-09 16:00:00,72.3,63.0,28.45,East,90,3.5,11.2,73,0.00,,,0.41,Rainwise IP-100,2013-05-09 21:00:00,
2013-05-09 16:05:00,72.2,63.0,28.46,ENE,67,2.3,10.3,72,0.00,,,0.41,Rainwise IP-100,2013-05-09 21:05:00,
2013-05-09 16:10:00,71.8,61.5,28.46,East,90,6.3,8.6,71,0.00,,,0.41,Rainwise IP-100,2013-05-09 21:10:00,
2013-05-09 16:15:00,72.4,63.0,28.46,NNE,22,3.7,7.2,72,0.00,,,0.41,Rainwise IP-100,2013-05-09 21:15:00,
2013-05-09 16:20:00,73.0,63.0,28.45,NNE,22,4.9,9.6,71,0.00,,,0.41,Rainwise IP-100,2013-05-09 21:20:00,
2013-05-09 16:25:00,73.7,63.0,28.45,ENE,67,6.5,11.2,69,0.00,,,0.41,Rainwise IP-100,2013-05-09 21:25:00,
2013-05-09 16:30:00,73.9,62.5,28.45,East,90,3.3,8.9,67,0.00,,,0.41,Rainwise IP-100,2013-05-09 21:30:00,
2013-05-09 16:35:00,73.9,62.5,28.44,ENE,67,8.6,10.3,67,0.00,,,0.41,Rainwise IP-100,2013-05-09 21:35:00,
2013-05-09 16:40:00,73.9,62.5,28.43,ENE,67,4.2,10.3,67,0.00,,,0.41,Rainwise IP-100,2013-05-09 21:40:00,
2013-05-09 16:45:00,73.9,62.0,28.44,ENE,67,6.1,7.2,66,0.00,,,0.41,Rainwise IP-100,2013-05-09 21:45:00,
2013-05-09 16:50:00,74.1,62.0,28.44,NNE,22,4.7,8.6,66,0.00,,,0.41,Rainwise IP-100,2013-05-09 21:50:00,
2013-05-09 16:55:00,74.0,61.5,28.44,ENE,67,5.4,11.4,65,0.00,,,0.41,Rainwise IP-100,2013-05-09 21:55:00,
2013-05-09 17:00:00,74.0,62.0,28.44,ENE,67,4.0,10.3,66,0.00,,,0.41,Rainwise IP-100,2013-05-09 22:00:00,
2013-05-09 17:05:00,74.1,62.0,28.44,ENE,67,8.2,12.1,66,0.00,,,0.41,Rainwise IP-100,2013-05-09 22:05:00,
2013-05-09 17:10:00,74.5,62.5,28.44,NNE,22,3.7,10.0,66,0.00,,,0.41,Rainwise IP-100,2013-05-09 22:10:00,
2013-05-09 17:15:00,75.1,62.0,28.44,North,360,9.8,10.3,64,0.00,,,0.41,Rainwise IP-100,2013-05-09 22:15:00,
2013-05-09 17:20:00,74.8,61.5,28.45,NE,45,2.3,12.4,63,0.00,,,0.41,Rainwise IP-100,2013-05-09 22:20:00,
2013-05-09 17:25:00,74.3,61.5,28.45,NE,45,8.2,8.6,64,0.00,,,0.41,Rainwise IP-100,2013-05-09 22:25:00,
2013-05-09 17:30:00,73.8,61.5,28.45,NNE,22,4.0,10.0,65,0.00,,,0.41,Rainwise IP-100,2013-05-09 22:30:00,
2013-05-09 17:35:00,73.0,61.0,28.45,NNE,22,6.1,10.5,66,0.00,,,0.41,Rainwise IP-100,2013-05-09 22:35:00,
2013-05-09 17:40:00,72.5,61.5,28.45,NE,45,5.1,7.7,68,0.00,,,0.41,Rainwise IP-100,2013-05-09 22:40:00,
2013-05-09 17:45:00,71.9,61.5,28.45,ENE,67,6.1,12.1,69,0.00,,,0.41,Rainwise IP-100,2013-05-09 22:45:00,
2013-05-09 17:50:00,71.3,61.0,28.45,NE,45,8.4,9.8,70,0.00,,,0.41,Rainwise IP-100,2013-05-09 22:50:00,
2013-05-09 17:55:00,71.1,61.0,28.46,NNE,22,2.8,10.0,71,0.00,,,0.41,Rainwise IP-100,2013-05-09 22:55:00,
2013-05-09 18:00:00,71.0,61.0,28.45,ESE,112,5.1,9.8,71,0.00,,,0.41,Rainwise IP-100,2013-05-09 23:00:00,
2013-05-09 18:05:00,70.6,61.0,28.46,NNE,22,5.1,8.9,72,0.00,,,0.41,Rainwise IP-100,2013-05-09 23:05:00,
2013-05-09 18:10:00,70.2,60.5,28.46,NE,45,7.7,9.8,72,0.00,,,0.41,Rainwise IP-100,2013-05-09 23:10:00,
2013-05-09 18:15:00,69.9,61.0,28.46,NNE,22,3.5,8.9,73,0.00,,,0.41,Rainwise IP-100,2013-05-09 23:15:00,
2013-05-09 18:20:00,69.7,61.0,28.46,ENE,67,2.1,7.7,74,0.00,,,0.41,Rainwise IP-100,2013-05-09 23:20:00,
2013-05-09 18:25:00,69.5,61.5,28.47,ENE,67,5.8,7.2,75,0.00,,,0.41,Rainwise IP-100,2013-05-09 23:25:00,
2013-05-09 18:30:00,69.3,61.0,28.47,ENE,67,3.0,6.8,75,0.00,,,0.41,Rainwise IP-100,2013-05-09 23:30:00,
2013-05-09 18:35:00,69.2,61.5,28.47,ENE,67,2.3,4.4,76,0.00,,,0.41,Rainwise IP-100,2013-05-09 23:35:00,
2013-05-09 18:40:00,68.9,61.5,28.47,ENE,67,1.4,4.9,77,0.00,,,0.41,Rainwise IP-100,2013-05-09 23:40:00,
2013-05-09 18:45:00,68.9,61.5,28.49,NW,315,1.9,4.4,77,0.00,,,0.41,Rainwise IP-100,2013-05-09 23:45:00,
2013-05-09 18:50:00,68.9,61.5,28.50,NNW,337,3.7,5.6,78,0.00,,,0.41,Rainwise IP-100,2013-05-09 23:50:00,
2013-05-09 18:55:00,68.8,62.0,28.46,ENE,67,5.4,8.2,79,0.00,,,0.41,Rainwise IP-100,2013-05-09 23:55:00,
2013-05-09 19:00:00,68.7,61.5,28.44,ENE,67,3.5,12.1,79,0.00,,,0.41,Rainwise IP-100,2013-05-10 00:00:00,
2013-05-09 19:05:00,68.5,61.5,28.44,East,90,4.4,9.1,79,0.00,,,0.41,Rainwise IP-100,2013-05-10 00:05:00,
2013-05-09 19:10:00,68.4,61.5,28.43,ESE,112,3.0,8.4,79,0.00,,,0.41,Rainwise IP-100,2013-05-10 00:10:00,
2013-05-09 19:15:00,68.3,62.0,28.44,SSE,157,4.9,7.5,80,0.00,,,0.41,Rainwise IP-100,2013-05-10 00:15:00,
2013-05-09 19:20:00,68.3,62.0,28.42,East,90,4.7,8.2,80,0.00,,,0.41,Rainwise IP-100,2013-05-10 00:20:00,
2013-05-09 19:25:00,68.2,61.5,28.42,ESE,112,1.2,8.2,80,0.00,,,0.41,Rainwise IP-100,2013-05-10 00:25:00,
2013-05-09 19:30:00,68.2,61.5,28.43,East,90,4.2,8.9,79,0.00,,,0.41,Rainwise IP-100,2013-05-10 00:30:00,
2013-05-09 19:35:00,68.4,61.5,28.44,ENE,67,3.0,7.2,78,0.00,,,0.41,Rainwise IP-100,2013-05-10 00:35:00,
2013-05-09 19:40:00,68.4,60.5,28.45,ENE,67,2.6,4.9,76,0.00,,,0.41,Rainwise IP-100,2013-05-10 00:40:00,
2013-05-09 19:45:00,68.3,61.0,28.46,East,90,2.3,5.4,77,0.00,,,0.41,Rainwise IP-100,2013-05-10 00:45:00,
2013-05-09 19:50:00,68.4,61.5,28.46,ESE,112,5.8,5.8,78,0.00,,,0.41,Rainwise IP-100,2013-05-10 00:50:00,
2013-05-09 19:55:00,68.4,61.5,28.42,SE,135,4.4,10.5,79,0.00,,,0.41,Rainwise IP-100,2013-05-10 00:55:00,
2013-05-09 20:00:00,68.4,61.5,28.42,North,360,11.7,11.7,79,0.00,,,0.41,Rainwise IP-100,2013-05-10 01:00:00,
2013-05-09 20:05:00,68.4,62.0,28.42,NNW,337,7.5,14.7,80,0.00,,,0.41,Rainwise IP-100,2013-05-10 01:05:00,
2013-05-09 20:10:00,68.7,62.0,28.42,SSE,157,6.3,13.8,80,0.00,,,0.41,Rainwise IP-100,2013-05-10 01:10:00,
2013-05-09 20:15:00,69.2,62.5,28.43,SSE,157,5.4,16.1,79,0.00,,,0.41,Rainwise IP-100,2013-05-10 01:15:00,
2013-05-09 20:20:00,69.3,62.0,28.41,NE,45,1.6,12.1,78,0.00,,,0.41,Rainwise IP-100,2013-05-10 01:20:00,
2013-05-09 20:25:00,69.2,62.0,28.41,ENE,67,7.5,10.0,78,0.00,,,0.41,Rainwise IP-100,2013-05-10 01:25:00,
2013-05-09 20:30:00,69.0,62.0,28.41,NNE,22,4.2,11.4,79,0.00,,,0.41,Rainwise IP-100,2013-05-10 01:30:00,
2013-05-09 20:35:00,68.7,62.0,28.40,NE,45,8.2,12.4,80,0.00,,,0.41,Rainwise IP-100,2013-05-10 01:35:00,
2013-05-09 20:40:00,68.6,62.5,28.40,NE,45,10.3,10.5,81,0.00,,,0.41,Rainwise IP-100,2013-05-10 01:40:00,
2013-05-09 20:45:00,68.6,62.0,28.40,ENE,67,4.7,14.9,80,0.00,,,0.41,Rainwise IP-100,2013-05-10 01:45:00,
2013-05-09 20:50:00,68.6,62.0,28.40,NE,45,4.4,10.3,80,0.00,,,0.41,Rainwise IP-100,2013-05-10 01:50:00,
2013-05-09 20:55:00,68.3,62.0,28.40,NNE,22,4.7,9.1,80,0.00,,,0.41,Rainwise IP-100,2013-05-10 01:55:00,
2013-05-09 21:00:00,68.0,62.0,28.40,ENE,67,4.2,10.0,81,0.00,,,0.41,Rainwise IP-100,2013-05-10 02:00:00,
2013-05-09 21:05:00,67.9,62.5,28.41,ENE,67,6.3,9.6,82,0.00,,,0.41,Rainwise IP-100,2013-05-10 02:05:00,
2013-05-09 21:10:00,67.8,62.5,28.41,East,90,7.2,10.7,83,0.00,,,0.41,Rainwise IP-100,2013-05-10 02:10:00,
2013-05-09 21:15:00,67.7,62.0,28.41,ENE,67,4.9,9.3,83,0.00,,,0.41,Rainwise IP-100,2013-05-10 02:15:00,
2013-05-09 21:20:00,67.6,62.0,28.41,ENE,67,2.6,8.6,83,0.00,,,0.41,Rainwise IP-100,2013-05-10 02:20:00,
2013-05-09 21:25:00,67.4,62.0,28.41,NE,45,1.4,8.9,83,0.00,,,0.41,Rainwise IP-100,2013-05-10 02:25:00,
2013-05-09 21:30:00,67.5,62.0,28.42,East,90,1.4,6.5,83,0.00,,,0.41,Rainwise IP-100,2013-05-10 02:30:00,
2013-05-09 21:35:00,67.3,62.0,28.42,ESE,112,1.2,2.6,83,0.00,,,0.41,Rainwise IP-100,2013-05-10 02:35:00,
2013-05-09 21:40:00,67.1,62.0,28.42,East,90,3.7,6.1,83,0.00,,,0.41,Rainwise IP-100,2013-05-10 02:40:00,
2013-05-09 21:45:00,67.3,62.0,28.42,ESE,112,4.7,7.5,83,0.00,,,0.41,Rainwise IP-100,2013-05-10 02:45:00,
2013-05-09 21:50:00,67.9,62.0,28.43,NE,45,4.2,7.9,81,0.00,,,0.41,Rainwise IP-100,2013-05-10 02:50:00,
2013-05-09 21:55:00,68.1,61.5,28.44,East,90,2.3,7.9,80,0.00,,,0.41,Rainwise IP-100,2013-05-10 02:55:00,
2013-05-09 22:00:00,68.0,61.5,28.43,ENE,67,4.0,5.6,79,0.00,,,0.41,Rainwise IP-100,2013-05-10 03:00:00,
2013-05-09 22:05:00,67.9,61.5,28.43,ENE,67,2.6,8.6,79,0.00,,,0.41,Rainwise IP-100,2013-05-10 03:05:00,
2013-05-09 22:10:00,67.8,61.5,28.43,East,90,1.2,4.2,79,0.00,,,0.41,Rainwise IP-100,2013-05-10 03:10:00,
2013-05-09 22:15:00,67.6,61.0,28.44,SE,135,1.9,4.4,79,0.00,,,0.41,Rainwise IP-100,2013-05-10 03:15:00,
2013-05-09 22:20:00,67.2,61.0,28.44,East,90,1.4,3.3,80,0.00,,,0.41,Rainwise IP-100,2013-05-10 03:20:00,
2013-05-09 22:25:00,67.0,61.0,28.44,East,90,1.6,4.2,80,0.00,,,0.41,Rainwise IP-100,2013-05-10 03:25:00,
2013-05-09 22:30:00,66.9,61.0,28.44,East,90,0.0,2.6,81,0.00,,,0.41,Rainwise IP-100,2013-05-10 03:30:00,
2013-05-09 22:35:00,66.6,61.0,28.45,East,90,0.0,0.0,82,0.00,,,0.41,Rainwise IP-100,2013-05-10 03:35:00,
2013-05-09 22:40:00,66.3,60.5,28.45,East,90,0.0,0.0,82,0.00,,,0.41,Rainwise IP-100,2013-05-10 03:40:00,
2013-05-09 22:45:00,66.0,60.5,28.45,East,90,0.0,0.0,83,0.00,,,0.41,Rainwise IP-100,2013-05-10 03:45:00,
2013-05-09 22:50:00,65.5,60.5,28.45,North,360,0.0,2.1,84,0.00,,,0.41,Rainwise IP-100,2013-05-10 03:50:00,
2013-05-09 22:55:00,64.9,60.5,28.45,North,360,0.0,1.2,86,0.00,,,0.41,Rainwise IP-100,2013-05-10 03:55:00,
2013-05-09 23:00:00,64.5,60.5,28.46,North,360,0.0,1.2,87,0.00,,,0.41,Rainwise IP-100,2013-05-10 04:00:00,
2013-05-09 23:01:00,64.4,60.5,28.45,North,360,0.0,1.2,87,0.00,,,0.41,Rainwise IP-100,2013-05-10 04:01:00,
2013-05-09 23:06:00,63.9,60.5,28.45,North,360,0.0,0.0,88,0.00,,,0.41,Rainwise IP-100,2013-05-10 04:06:00,
2013-05-09 23:11:00,63.3,60.5,28.46,North,360,1.4,1.4,89,0.00,,,0.41,Rainwise IP-100,2013-05-10 04:11:00,
2013-05-09 23:16:00,62.9,60.0,28.47,North,360,1.4,2.1,90,0.00,,,0.41,Rainwise IP-100,2013-05-10 04:16:00,
2013-05-09 23:21:00,62.8,60.5,28.47,North,360,1.4,2.3,91,0.00,,,0.41,Rainwise IP-100,2013-05-10 04:21:00,
2013-05-09 23:26:00,62.8,60.5,28.47,North,360,1.9,2.3,91,0.00,,,0.41,Rainwise IP-100,2013-05-10 04:26:00,
2013-05-09 23:31:00,62.7,60.0,28.47,North,360,0.0,2.6,91,0.00,,,0.41,Rainwise IP-100,2013-05-10 04:31:00,
2013-05-09 23:36:00,62.2,60.0,28.47,North,360,2.1,2.1,92,0.00,,,0.41,Rainwise IP-100,2013-05-10 04:36:00,
2013-05-09 23:41:00,61.8,60.0,28.47,North,360,0.0,2.3,92,0.00,,,0.41,Rainwise IP-100,2013-05-10 04:41:00,
2013-05-09 23:46:00,61.6,59.5,28.47,North,360,0.0,2.1,92,0.00,,,0.41,Rainwise IP-100,2013-05-10 04:46:00,
2013-05-09 23:50:00,61.3,59.5,28.47,North,360,0.0,2.1,92,0.00,,,0.41,Rainwise IP-100,2013-05-10 04:50:00,
2013-05-09 23:51:00,61.3,59.5,28.47,North,360,0.0,2.1,93,0.00,,,0.41,Rainwise IP-100,2013-05-10 04:51:00,
2013-05-09 23:52:00,61.2,59.0,28.47,North,360,0.0,2.1,93,0.00,,,0.41,Rainwise IP-100,2013-05-10 04:52:00,
2013-05-09 23:54:00,61.1,59.0,28.46,North,360,0.0,2.1,93,0.00,,,0.41,Rainwise IP-100,2013-05-10 04:54:00,
2013-05-09 23:59:00,60.9,59.5,28.47,North,360,0.0,2.3,94,0.00,,,0.41,Rainwise IP-100,2013-05-10 04:59:00,